Location: Gro�wechsungen
(51.4926°N, 10.6901°E)
Time: 10:53:10
(UTC+00:00)

Cosmos 2082 Rocket - Visible Passes

Search period start: 17 January 2021 00:00
Search period end: 27 January 2021 00:00
Orbit: 831 x 855 km, 71.0° (Epoch: 16 January)

Date Brightness Start Highest point End Pass type
(mag) Time Alt. Az. Time Alt. Az. Time Alt. Az.
17 Jan 4.2 16:51:25 10° N 16:53:27 12° NNE 16:55:30 10° NE visible
17 Jan 3.8 18:34:55 10° NNW 18:37:45 22° N 18:37:45 22° N visible
17 Jan 4.7 20:18:44 10° NNW 20:19:37 15° NNW 20:19:37 15° NNW visible
18 Jan 4.2 16:36:52 10° N 16:38:51 12° NNE 16:40:49 10° NNE visible
18 Jan 3.6 18:20:23 10° NNW 18:23:46 24° NNE 18:23:46 24° NNE visible
18 Jan 4.5 20:04:11 10° NNW 20:05:38 18° NNW 20:05:38 18° NNW visible
19 Jan 4.2 16:22:20 10° N 16:24:14 12° NNE 16:26:08 10° NNE visible
19 Jan 3.5 18:05:51 10° NNW 18:09:49 25° NNE 18:09:49 25° NNE visible
19 Jan 4.1 19:49:38 10° NNW 19:51:41 23° NNW 19:51:41 23° NNW visible
20 Jan 3.4 17:51:18 10° NNW 17:55:56 25° NE 17:55:56 25° NE visible
20 Jan 3.8 19:35:05 10° NNW 19:37:47 29° NNW 19:37:47 29° NNW visible
21 Jan 3.3 17:36:46 10° NNW 17:41:23 24° NE 17:42:06 23° NE visible
21 Jan 3.3 19:20:32 10° NNW 19:23:58 38° NNW 19:23:58 38° NNW visible
21 Jan 5.2 21:05:47 10° WNW 21:05:50 10° WNW 21:05:50 10° WNW visible
22 Jan 3.4 17:22:14 10° NNW 17:26:47 23° NE 17:28:21 21° ENE visible
22 Jan 2.8 19:05:59 10° NNW 19:10:13 51° NNW 19:10:13 51° NNW visible
22 Jan 4.9 20:51:10 10° NW 20:52:06 13° WNW 20:52:06 13° WNW visible
23 Jan 3.4 17:07:42 10° NNW 17:12:12 23° NE 17:14:41 18° ENE visible
23 Jan 2.2 18:51:26 10° NNW 18:56:34 71° N 18:56:34 71° N visible
23 Jan 4.7 20:36:32 10° NW 20:38:28 17° WNW 20:38:28 17° WNW visible
24 Jan 3.4 16:53:09 10° NNW 16:57:37 22° NE 17:01:09 13° E visible
24 Jan 2.0 18:36:52 10° NNW 18:42:39 79° ENE 18:43:03 74° ESE visible
24 Jan 4.4 20:21:56 10° NW 20:24:57 20° W 20:24:57 20° W visible
25 Jan 3.5 16:38:37 10° NNW 16:43:01 22° NE 16:47:24 10° E visible
25 Jan 2.1 18:22:19 10° NNW 18:28:05 77° ENE 18:29:42 49° SE visible
25 Jan 4.3 20:07:18 10° NW 20:11:34 22° W 20:11:37 22° WSW visible
26 Jan 3.5 16:24:04 10° NNW 16:28:26 21° NE 16:32:45 10° E visible
26 Jan 2.1 18:07:46 10° NNW 18:13:32 74° ENE 18:16:35 29° SE visible
26 Jan 4.2 19:52:42 10° NW 19:57:03 23° WSW 19:58:31 21° WSW visible
